Printer-friendly version

IAU Minor Planet Center

Minor Planet Center

MPEC 2006-B35 : 2006 BQ7

The following Minor Planet Electronic Circular may be linked-to from your own Web pages, but must not otherwise be redistributed electronically.


Read MPEC 2006-B34 Read MPEC 2006-B36


M.P.E.C. 2006-B35                                Issued 2006 Jan. 24, 04:30 UT

     The Minor Planet Electronic Circulars contain information on unusual
         minor planets and routine data on comets.  They are published
   on behalf of Commission 20 of the International Astronomical Union by the
          Minor Planet Center, Smithsonian Astrophysical Observatory,
                          Cambridge, MA 02138, U.S.A.

                  Supported in part by the Brinson Foundation
                  Supported in part by the TABASGO Foundation
             Prepared using the Tamkin Foundation Computer Network

                              MPC@CFA.HARVARD.EDU
          URL http://cfa-www.harvard.edu/iau/mpc.html  ISSN 1523-6714

                                   2006 BQ7

Observations:
     K06B07Q* C2006 01 22.42090 09 05 25.47 +15 30 49.2          20.5 V EB035G96
     K06B07Q  C2006 01 22.42490 09 05 26.01 +15 30 07.8          20.2 V EB035G96
     K06B07Q  C2006 01 22.42890 09 05 26.52 +15 29 26.1          20.1 V EB035G96
     K06B07Q  C2006 01 22.43291 09 05 27.02 +15 28 44.7          20.0 V EB035G96
     K06B07Q  C2006 01 22.45828 09 05 30.37 +15 24 20.8          20.2 V EB035G96
     K06B07Q  C2006 01 22.46337 09 05 31.05 +15 23 27.5          20.2 V EB035G96
     K06B07Q  C2006 01 22.46844 09 05 31.74 +15 22 34.7          20.1 V EB035G96
     K06B07Q  C2006 01 22.47351 09 05 32.46 +15 21 42.4          20.0 V EB035G96
     K06B07Q  C2006 01 23.37339 09 08 31.66 +12 55 38.2          20.0 V EB035G96
     K06B07Q  C2006 01 23.37478 09 08 31.77 +12 55 25.3          20.5 V EB035G96
     K06B07Q  C2006 01 23.37613 09 08 31.88 +12 55 12.5          19.9 V EB035G96
     K06B07Q  C2006 01 23.37749 09 08 32.02 +12 54 59.5          20.3 V EB035G96
     K06B07Q  C2006 01 23.99159 09 10 20.74 +11 21 20.9                 EB035246
     K06B07Q  C2006 01 23.99211 09 10 20.81 +11 21 13.9                 EB035246
     K06B07Q  C2006 01 23.99280 09 10 20.90 +11 21 08.6                 EB035246
     K06B07Q  C2006 01 23.99348 09 10 21.02 +11 21 04.9                 EB035246
     K06B07Q  C2006 01 24.14750 09 10 40.18 +10 58 27.2                 EB035J95
     K06B07Q  C2006 01 24.15618 09 10 41.25 +10 57 09.2          19.6 R EB035J95

Observer details:
246 Klet Observatory-KLENOT.  Observers M. Tichy, J. Ticha.  Measurer M. Tichy.
    1.06-m KLENOT Telescope + CCD.
G96 Mt. Lemmon Survey.  Observer E. C. Beshore.  Measurers E. C. Beshore,
    E. J. Christensen, G. J. Garradd, A. D. Grauer, R. E. Hill, R. A. Kowalski,
    S. M. Larson, R. H. McNaught.  1.5-m reflector + CCD.
J95 Great Shefford.  Observer P. Birtwhistle.  0.40-m f/6.0 Schmidt-Cassegrain
    + CCD.

Orbital elements:
2006 BQ7                                                 Earth MOID = 0.0283 AU
Epoch 2006 Jan. 5.0 TT = JDT 2453740.5                  MPC
M   3.69777              (2000.0)            P               Q
n   0.62889385     Peri.  155.05141     -0.12664434     -0.98920813
a   1.3492253      Node   302.14607     +0.89487103     -0.08188787
e   0.2585344      Incl.    4.99212     +0.42798021     -0.12149752
P   1.57           H   26.5           G   0.15
From 18 observations 2006 Jan. 22-24.

Ephemeris:
2006 BQ7                 a,e,i = 1.35, 0.26, 5                   q = 1.0004
Date    TT    R. A. (2000) Decl.     Delta      r     Elong.  Phase     V
2006 01 15    08 19.19   +43 55.0    0.0287   1.010   156.3    23.1    19.9
2006 01 25    09 12.95   +09 03.0    0.0421   1.025   165.3    14.1    20.5
2006 02 04    09 27.37   -04 56.1    0.0656   1.047   158.3    20.4    21.7
2006 02 14    09 33.25   -10 02.9    0.0939   1.074   156.4    21.6    22.6
2006 02 24    09 37.26   -11 31.0    0.126    1.106   155.4    21.9    23.3

Gareth V. Williams           (C) Copyright 2006 MPC           M.P.E.C. 2006-B35

Read MPEC 2006-B34 Read MPEC 2006-B36


Our Web policy. Index to the CBAT/MPC/ICQ pages.


Valid HTML 4.01!